< < Back
Terminal Aerodrome Forecast


Current Version              Previous Versions:   1  2  3  4  5  6  7  8  9  

Terminal Aerodrome Forecast

450
FTUS42 KFFC 292300
TAFPDK
TAF
KPDK 292323Z 3000/3024 30008KT P6SM FEW030 SCT120
     FM300400 32004KT P6SM FEW120
     FM301400 35008KT P6SM SKC=

Latest METAR

959
SAUS70 KWBC 301800 RRA
MTRPDK
METAR KPDK 301753Z VRB05KT 10SM CLR 19/03 A3003 RMK AO2 SLP167 T01890028
10189 20044 58021


USA.gov is the U.S. government's official web portal to all federal, state and local government web resources and services.